User: anonymous   Login
Location: Cointrin
(46.2167°N, 6.1167°E)
Time: 11:09:24
(UTC+00:00)
Language:

Cosmos 2333 Rocket - Orbit

View from above orbital plane
View from above orbital plane
View from above satellite
View from above satellite

Ground track
Ground track

The orbit data is extracted from the following two-line orbital elements,

1 24298U 96051B   23151.17691770 -.00000012  00000-0  19932-4 0  9998
2 24298  70.8264 157.1511 0018064 201.0602 158.9777 14.12515842378796
Epoch (UTC): 31 May 2023 04:14:45
Eccentricity: 0.0018064
inclination: 70.8264°
perigee height: 838 km
apogee height: 864 km
right ascension of ascending node: 157.1511°
argument of perigee: 201.0602°
revolutions per day: 14.12515842
mean anomaly at epoch: 158.9777°
orbit number at epoch: 37879

The dashed part of the orbit path shows where the satellite is in the earth's shadow,  

DLR